5B4ALR-13 Weather Reports


time (UTC)temp
C
wind
direction
speed
KPH
gust
KPH
rain 1hr
cm
rain 24hr
cm
rain mn
cm
humidity
%
barometer
mb
20260504110108 20 225 1.6 1.6 0.00 0.23 0.18 55 1009.4
20260504100106 17 225 1.6 1.6 0.03 0.30 0.18 60 1009.5
20260504090105 20 315 1.6 1.6 0.00 0.38 0.15 52 1008.4
20260504081105 18 180 1.6 4.8 0.13 0.38 0.15 66 1008.2
20260504080105 17 180 4.8 4.8 0.13 0.38 0.15 74 1008.3
20260504070105 15 180 3.2 3.2 0.00 0.25 0.03 71 1008.1
20260504060105 16 180 1.6 3.2 0.00 0.28 0.03 64 1007.7
20260504050105 15 247 1.6 1.6 0.00 0.30 0.03 69 1007.8
20260504045105 15 180 1.6 3.2 0.00 0.36 0.03 71 1007.8
20260504044105 14 270 0.0 1.6 0.00 0.36 0.03 72 1007.8
20260504043105 13 225 1.6 1.6 0.00 0.36 0.03 73 1007.9
20260504042105 14 225 3.2 4.8 0.03 0.36 0.03 71 1008.0
20260504041105 14 180 1.6 1.6 0.03 0.36 0.03 69 1007.9
20260504040105 14 225 1.6 3.2 0.03 0.36 0.03 70 1007.9
20260504035105 13 225 1.6 1.6 0.03 0.38 0.03 70 1008.0
20260504034105 13 180 1.6 1.6 0.03 0.38 0.03 70 1008.2
20260504033105 13 225 1.6 1.6 0.03 0.38 0.03 71 1008.2
20260504032105 13 180 1.6 1.6 0.03 0.38 0.03 72 1008.2
20260504031105 14 247 1.6 1.6 0.00 0.36 0.00 70 1008.4
20260504030105 14 180 4.8 6.4 0.00 0.36 0.00 72 1007.9
20260504025105 14 225 1.6 1.6 0.00 0.36 0.00 71 1008.1
20260504024105 14 225 3.2 3.2 0.00 0.36 0.00 69 1008.2
20260504023105 14 225 1.6 1.6 0.00 0.36 0.00 68 1008.0
20260504022105 14 180 1.6 3.2 0.00 0.36 0.00 68 1008.2
20260504021105 14 180 1.6 3.2 0.00 0.36 0.00 68 1008.1
20260504020105 13 225 0.0 1.6 0.00 0.36 0.00 69 1008.5
20260504015105 13 225 1.6 1.6 0.00 0.36 0.00 69 1008.6
20260504014105 13 180 0.0 0.0 0.00 0.36 0.00 69 1008.7
20260504013105 13 270 0.0 1.6 0.00 0.36 0.00 69 1008.9
20260504012105 13 270 0.0 0.0 0.00 0.36 0.00 68 1008.8
20260504011105 13 225 0.0 1.6 0.00 0.36 0.00 68 1009.0
20260504010105 13 180 1.6 1.6 0.00 0.36 0.00 67 1008.9
20260504005105 13 180 1.6 1.6 0.00 0.36 0.00 65 1008.8
20260504004105 15 180 0.0 1.6 0.00 0.36 0.00 65 1008.8
20260504003105 15 225 0.0 0.0 0.00 0.36 0.00 64 1008.7
20260504002105 15 225 0.0 0.0 0.00 0.36 0.00 63 1008.9
20260504001105 14 270 1.6 1.6 0.00 0.36 0.00 62 1009.0
20260504000105 14 180 3.2 3.2 0.00 0.36 0.00 62 1008.9
20260503235105 14 0 1.6 1.6 0.00 0.38 0.00 63 1009.0
20260503234105 14 157 1.6 1.6 0.00 0.38 0.00 64 1009.0
20260503233105 13 225 0.0 1.6 0.00 0.38 0.00 66 1009.1
20260503232105 13 225 0.0 0.0 0.00 0.38 0.00 66 1009.4
20260503231105 13 180 1.6 3.2 0.00 0.38 0.00 65 1009.5
20260503230105 13 180 0.0 0.0 0.00 0.38 0.00 65 1009.6
20260503225105 13 180 0.0 0.0 0.00 0.38 0.00 65 1009.7
20260503224105 13 270 0.0 0.0 0.00 0.38 0.00 64 1009.7
20260503223105 14 135 0.0 0.0 0.00 0.38 0.00 64 1009.7
20260503222105 13 180 3.2 9.7 0.00 0.38 0.00 65 1009.7
20260503221105 13 180 3.2 9.7 0.00 0.38 0.00 66 1009.7
20260503220105 13 180 1.6 4.8 0.00 0.38 0.00 65 1009.8
20260503215105 13 180 3.2 9.7 0.00 0.38 0.00 65 1009.9
20260503214105 13 225 3.2 11.3 0.00 0.38 0.00 65 1009.8
20260503213105 13 180 3.2 3.2 0.00 0.38 0.00 65 1009.8
20260503212105 13 202 1.6 3.2 0.00 0.38 0.00 64 1010.1
20260503211105 15 225 8.0 16.1 0.00 0.38 0.00 58 1010.4
20260503210105 15 225 3.2 3.2 0.00 0.38 0.00 59 1009.8
20260503205105 14 180 3.2 3.2 0.00 0.38 0.38 62 1009.8
20260503204105 14 202 1.6 1.6 0.00 0.38 0.38 63 1009.8
20260503203105 14 270 1.6 6.4 0.00 0.38 0.38 62 1009.9
20260503202105 14 270 1.6 1.6 0.00 0.38 0.38 62 1010.0
20260503201105 14 180 1.6 1.6 0.00 0.38 0.38 62 1010.0
20260503200105 15 180 1.6 3.2 0.00 0.38 0.38 61 1010.1
20260503195105 15 270 1.6 3.2 0.00 0.38 0.38 60 1010.2
20260503194105 15 180 4.8 8.0 0.00 0.38 0.38 60 1010.3
20260503193105 15 180 3.2 8.0 0.00 0.38 0.38 60 1010.3
20260503192105 15 270 4.8 8.0 0.00 0.38 0.38 61 1010.3
20260503191105 15 270 4.8 11.3 0.00 0.38 0.38 62 1010.0
20260503190105 15 247 3.2 9.7 0.00 0.38 0.38 61 1010.1
20260503185105 15 180 1.6 1.6 0.00 0.38 0.38 60 1010.0
20260503184105 15 180 1.6 3.2 0.00 0.38 0.38 60 1009.9
20260503183105 15 225 1.6 1.6 0.00 0.38 0.38 60 1009.8
20260503182105 15 157 3.2 8.0 0.00 0.38 0.38 59 1009.7
20260503181105 15 180 1.6 3.2 0.00 0.38 0.38 58 1009.6
20260503180105 16 225 1.6 1.6 0.00 0.38 0.38 58 1009.6
20260503175105 16 180 3.2 6.4 0.00 0.38 0.38 58 1009.4
20260503174105 16 270 1.6 1.6 0.00 0.38 0.38 58 1009.4
20260503173105 16 225 1.6 3.2 0.00 0.38 0.38 58 1009.2
20260503172105 16 202 1.6 1.6 0.00 0.38 0.38 58 1009.2
20260503171105 16 270 1.6 1.6 0.00 0.38 0.38 59 1009.0
20260503170105 16 225 0.0 1.6 0.00 0.38 0.38 58 1008.9
20260503160105 18 225 1.6 3.2 0.00 0.38 0.38 52 1008.3
20260503150105 18 270 1.6 3.2 0.00 0.38 0.38 56 1007.9
20260503140105 18 135 1.6 3.2 0.00 0.38 0.38 61 1007.7
20260503131105 18 270 1.6 1.6 0.00 0.38 0.38 73 1008.2
20260503130105 17 180 3.2 4.8 0.03 0.38 0.38 75 1008.2
20260503120105 17 270 3.2 4.8 0.00 0.36 0.36 81 1008.5